Weather History for Dumas, TX

Change the Weather History Date:

Friday, July 26, 2013

  Actual Average (KBGD) Record (KBGD)
Temperature  
Mean Temperature 74 °F 82 °F  
Max Temperature 84 °F 95 °F 105 °F (2011)
Min Temperature 63 °F 70 °F 57 °F (2004)
Degree Days  
Heating Degree Days 0 0  
Month to date heating degree days 0  
Since 1 June heating degree days 3  
Since 1 July heating degree days 0  
Cooling Degree Days 8 17  
Month to date cooling degree days 437  
Year to date cooling degree days 992  
Since 1 June cooling degree days 795  
Growing Degree Days 24 (Base 50)    
Moisture  
Dew Point 58 °F    
Average Humidity 61    
Maximum Humidity 92    
Minimum Humidity 28    
Precipitation  
Precipitation 0.00 in 0.09 in 1.56 in (1977)
Month to date precipitation 2.01  
Year to date precipitation 12.23  
Snow  
Snow 0.00 in - - ()
Month to date snowfall  
Since 1 June snowfall  
Since 1 July snowfall  
Snow Depth -    
Sea Level Pressure  
Sea Level Pressure 30.19 in    
Wind  
Wind Speed 12 mph (NNE)    
Max Wind Speed 21 mph    
Max Gust Speed 29 mph    
Visibility 10 miles    
Events      
T = Trace of Precipitation, MM = Missing Value Source: NWS Daily Summary

Daily Weather History Graph

Daily Weather History Graph

Search for Another Location

Airport:

Trip Planner

Search our weather history database for the weather conditions in past years. The results will help you decide how hot, cold, wet, or windy it might be!

Date:

Astronomy

Jul. 26, 2013 Rise Set
Actual Time 6:51 AM CDT 8:57 PM CDT
Civil Twilight 6:22 AM CDT 9:25 PM CDT
Nautical Twilight 5:47 AM CDT 10:00 PM CDT
Astronomical Twilight 5:10 AM CDT 10:38 PM CDT
Moon 11:24 PM CDT (7/26) 11:18 AM CDT (7/26)
Length of Visible Light 15h 03m
Length of Day
14h 06m
Waning Gibbous, 80% of the Moon is Illuminated
Jul 26
Waning Gibbous
Jul 29
Last Quarter
Aug 6
New
Aug 14
First Quarter
Aug 20
Full

Hourly Weather History & Observations

Time (CDT) Temp. Heat Index Dew Point Humidity Pressure Visibility Wind Dir Wind Speed Gust Speed Precip Events Conditions
12:15 AM 74.7 °F - 67.6 °F 79% 30.14 in 10.0 mi West 5.8 mph - N/A   Scattered Clouds
12:35 AM 73.9 °F - 67.1 °F 79% 30.15 in 10.0 mi West 6.9 mph - N/A   Clear
12:55 AM 73.4 °F - 67.1 °F 81% 30.16 in 10.0 mi West 11.5 mph - N/A   Clear
1:15 AM 73.0 °F - 67.1 °F 82% 30.15 in 10.0 mi WNW 12.7 mph - N/A   Clear
1:35 AM 72.3 °F - 66.6 °F 82% 30.15 in 10.0 mi WNW 10.4 mph - N/A   Clear
1:55 AM 71.8 °F - 65.7 °F 81% 30.14 in 10.0 mi WNW 10.4 mph - N/A   Clear
2:15 AM 70.3 °F - 64.0 °F 80% 30.15 in 10.0 mi NNW 10.4 mph - N/A   Clear
2:35 AM 68.9 °F - 63.5 °F 83% 30.14 in 10.0 mi NNW 8.1 mph - N/A   Clear
2:55 AM 67.5 °F - 63.1 °F 86% 30.14 in 10.0 mi NNW 11.5 mph - N/A   Clear
3:15 AM 66.9 °F - 62.6 °F 86% 30.13 in 10.0 mi NNW 11.5 mph - N/A   Clear
3:35 AM 66.2 °F - 62.6 °F 88% 30.14 in 10.0 mi NW 9.2 mph - N/A   Clear
3:55 AM 66.2 °F - 62.2 °F 87% 30.14 in 10.0 mi NW 9.2 mph - N/A   Clear
4:15 AM 65.7 °F - 62.2 °F 89% 30.15 in 10.0 mi NNW 12.7 mph - N/A   Clear
4:35 AM 65.7 °F - 62.2 °F 89% 30.15 in 10.0 mi NNW 12.7 mph - N/A   Clear
4:55 AM 64.8 °F - 61.9 °F 90% 30.16 in 10.0 mi North 10.4 mph - N/A   Clear
5:15 AM 64.8 °F - 61.9 °F 90% 30.16 in 10.0 mi NNW 10.4 mph - N/A   Clear
5:35 AM 64.4 °F - 61.7 °F 91% 30.16 in 10.0 mi NNW 12.7 mph - N/A   Clear
5:55 AM 63.9 °F - 61.5 °F 92% 30.16 in 10.0 mi NNW 15.0 mph - N/A   Clear
6:15 AM 64.0 °F - 61.3 °F 91% 30.16 in 10.0 mi NNW 13.8 mph - N/A   Clear
6:35 AM 63.9 °F - 61.0 °F 90% 30.16 in 10.0 mi NNW 11.5 mph - N/A   Clear
6:55 AM 63.9 °F - 60.8 °F 90% 30.17 in 10.0 mi NNW 15.0 mph - N/A   Clear
7:15 AM 64.4 °F - 60.8 °F 88% 30.18 in 10.0 mi NNW 12.7 mph - N/A   Clear
7:35 AM 64.9 °F - 60.8 °F 86% 30.18 in 10.0 mi North 15.0 mph - N/A   Clear
7:55 AM 66.2 °F - 60.8 °F 83% 30.19 in 10.0 mi North 15.0 mph 19.6 mph N/A   Clear
8:15 AM 67.8 °F - 61.0 °F 79% 30.19 in 10.0 mi North 17.3 mph 21.9 mph N/A   Clear
8:35 AM 68.9 °F - 61.0 °F 76% 30.19 in 10.0 mi North 18.4 mph 25.3 mph N/A   Clear
8:55 AM 69.4 °F - 60.4 °F 73% 30.20 in 10.0 mi North 19.6 mph 27.6 mph N/A   Clear
9:15 AM 70.9 °F - 61.0 °F 71% 30.20 in 10.0 mi North 20.7 mph 26.5 mph N/A   Clear
9:35 AM 72.1 °F - 61.7 °F 70% 30.20 in 10.0 mi North 18.4 mph 27.6 mph N/A   Clear
9:55 AM 72.3 °F - 61.9 °F 70% 30.21 in 10.0 mi North 19.6 mph 28.8 mph N/A   Scattered Clouds
10:15 AM 73.0 °F - 61.9 °F 68% 30.21 in 10.0 mi North 17.3 mph 27.6 mph N/A   Scattered Clouds
10:35 AM 73.6 °F - 61.5 °F 66% 30.22 in 10.0 mi North 17.3 mph 24.2 mph N/A   Scattered Clouds
10:55 AM 74.8 °F - 61.3 °F 63% 30.22 in 10.0 mi NNE 16.1 mph 23.0 mph N/A   Scattered Clouds
11:15 AM 76.5 °F - 61.2 °F 59% 30.23 in 10.0 mi North 16.1 mph 24.2 mph N/A   Scattered Clouds
11:35 AM 76.1 °F - 60.6 °F 59% 30.24 in 10.0 mi North 18.4 mph 23.0 mph N/A   Scattered Clouds
12:15 PM 77.9 °F - 60.3 °F 54% 30.24 in 10.0 mi NNE 17.3 mph 21.9 mph N/A   Scattered Clouds
12:35 PM 79.0 °F - 59.7 °F 52% 30.24 in 10.0 mi North 13.8 mph 21.9 mph N/A   Clear
12:55 PM 79.3 °F - 59.5 °F 51% 30.24 in 10.0 mi NNE 13.8 mph 21.9 mph N/A   Scattered Clouds
1:15 PM 80.4 °F 80.9 °F 58.6 °F 47% 30.24 in 10.0 mi North 15.0 mph 20.7 mph N/A   Clear
1:35 PM 80.1 °F 80.7 °F 58.5 °F 48% 30.23 in 10.0 mi NE 17.3 mph 23.0 mph N/A   Clear
1:55 PM 80.6 °F 80.9 °F 58.3 °F 46% 30.22 in 10.0 mi NNE 13.8 mph 24.2 mph N/A   Clear
2:15 PM 81.5 °F 81.1 °F 55.4 °F 41% 30.22 in 10.0 mi NNE 13.8 mph 24.2 mph N/A   Clear
2:35 PM 81.9 °F 81.7 °F 57.0 °F 43% 30.22 in 10.0 mi NNE 12.7 mph 19.6 mph N/A   Clear
2:55 PM 81.9 °F 81.6 °F 56.7 °F 42% 30.22 in 10.0 mi NNE 13.8 mph 20.7 mph N/A   Clear
3:15 PM 81.9 °F 81.3 °F 55.6 °F 40% 30.21 in 10.0 mi NNE 17.3 mph 27.6 mph N/A   Clear
3:35 PM 82.4 °F 82.0 °F 57.2 °F 42% 30.20 in 10.0 mi NE 11.5 mph 20.7 mph N/A   Clear
3:55 PM 83.1 °F 82.2 °F 55.4 °F 38% 30.20 in 10.0 mi NE 12.7 mph 21.9 mph N/A   Clear
4:15 PM 83.1 °F 82.1 °F 54.0 °F 37% 30.20 in 10.0 mi NE 15.0 mph 24.2 mph N/A   Clear
4:35 PM 83.7 °F - 52.3 °F 34% 30.20 in 10.0 mi ENE 17.3 mph 24.2 mph N/A   Clear
4:55 PM 84.6 °F - 50.9 °F 31% 30.19 in 10.0 mi ENE 17.3 mph 24.2 mph N/A   Clear
5:15 PM 84.4 °F - 51.3 °F 32% 30.19 in 10.0 mi NE 15.0 mph 25.3 mph N/A   Clear
5:35 PM 84.7 °F - 51.3 °F 31% 30.19 in 10.0 mi NE 13.8 mph 21.9 mph N/A   Clear
5:55 PM 83.5 °F - 51.4 °F 33% 30.19 in 10.0 mi NE 13.8 mph 21.9 mph N/A   Clear
6:15 PM 84.6 °F - 51.8 °F 32% 30.19 in 10.0 mi NE 15.0 mph 20.7 mph N/A   Clear
6:35 PM 82.9 °F - 49.3 °F 31% 30.19 in 10.0 mi ENE 15.0 mph 21.9 mph N/A   Clear
6:55 PM 82.8 °F - 47.7 °F 29% 30.19 in 10.0 mi ENE 13.8 mph 19.6 mph N/A   Clear
7:15 PM 82.6 °F - 46.2 °F 28% 30.19 in 10.0 mi NE 12.7 mph 23.0 mph N/A   Clear
7:35 PM 80.6 °F - 49.5 °F 34% 30.19 in 10.0 mi ENE 13.8 mph - N/A   Clear
7:55 PM 79.7 °F - 50.4 °F 36% 30.19 in 10.0 mi ENE 10.4 mph - N/A   Clear
8:15 PM 79.2 °F - 50.0 °F 36% 30.20 in 10.0 mi ENE 6.9 mph - N/A   Clear
8:35 PM 77.9 °F - 49.1 °F 36% 30.20 in 10.0 mi ENE 6.9 mph - N/A   Clear
8:55 PM 75.7 °F - 49.1 °F 39% 30.20 in 10.0 mi NE 5.8 mph - N/A   Clear
9:15 PM 74.7 °F - 49.3 °F 41% 30.21 in 10.0 mi ENE 5.8 mph - N/A   Clear
9:35 PM 73.4 °F - 50.0 °F 44% 30.21 in 10.0 mi ENE 6.9 mph - N/A   Clear
9:55 PM 71.6 °F - 50.4 °F 47% 30.22 in 10.0 mi ENE 6.9 mph - N/A   Clear
10:15 PM 71.6 °F - 50.9 °F 48% 30.24 in 10.0 mi ENE 5.8 mph - N/A   Clear
10:35 PM 70.9 °F - 51.1 °F 49% 30.25 in 10.0 mi East 6.9 mph - N/A   Clear
10:55 PM 72.0 °F - 51.4 °F 48% 30.25 in 10.0 mi East 8.1 mph - N/A   Clear
11:15 PM 71.2 °F - 52.0 °F 51% 30.26 in 10.0 mi East 9.2 mph - N/A   Clear
11:35 PM 68.5 °F - 52.7 °F 57% 30.26 in 10.0 mi ESE 6.9 mph - N/A   Clear
11:55 PM 66.7 °F - 52.3 °F 60% 30.26 in 10.0 mi ESE 6.9 mph - N/A   Clear